contact:dominique.lefevre@mio.osupytheas.fr, maurice.libes@osupytheas.fr, didier.mallarino@osupytheas.fr
Project:EMSO http://www.emso-fr.org/EMSO-France
Depth: 2436.0 m
Title:EMSO Ligure Ouest : Data MII capteur AQUADOPP
Date,Latitude,Longitude,X_East,Y_North,Z_Up,Amplitude_X,Amplitude_Y,Amplitude_Z,Batterie,SoundSpeed,Heading,Pitch,Roll,Pressure,TIS,Speed,Direction
, degrees North, degrees East, m.s-1, m.s-1,m.s-1, 1, 1, 1, Volt, m.s-1, degree, degree, degree, dbar, degree_C, m.s-1, degree
2023-12-24T00:04:03,42.805,6.029,-0.007,-0.003,-0.029,103.0,103.0,101.0,13.4,1505.2,354.0,-0.8,1.8,2471.46,13.29,0.007,246.8
2023-12-24T00:07:03,42.805,6.029,-0.018,0.036,0.006,102.0,103.0,102.0,13.4,1505.2,353.9,-0.8,1.8,2471.483,13.29,0.04,333.4
2023-12-24T00:10:03,42.805,6.029,-0.006,0.009,-0.019,102.0,102.0,102.0,13.4,1505.2,349.6,-0.7,1.8,2471.446,13.29,0.01,326.3
2023-12-24T00:13:03,42.805,6.029,0.002,0.023,-0.038,102.0,102.0,101.0,13.4,1505.2,358.4,-0.8,1.8,2471.465,13.29,0.023,5.0
2023-12-24T00:16:03,42.805,6.029,-0.002,0.008,-0.017,103.0,102.0,101.0,13.4,1505.2,347.4,-0.8,1.8,2471.408,13.29,0.008,346.0
2023-12-24T00:19:03,42.805,6.029,0.01,0.003,-0.048,101.0,104.0,101.0,13.3,1505.2,343.6,-0.8,1.8,2471.467,13.29,0.01,73.3
2023-12-24T00:22:03,42.805,6.029,-0.002,0.014,-0.061,103.0,104.0,100.0,13.3,1505.2,352.9,-0.8,1.8,2471.48,13.29,0.014,351.9
2023-12-24T00:25:03,42.805,6.029,-0.006,0.021,-0.017,103.0,105.0,101.0,13.3,1505.2,357.7,-0.8,1.8,2471.399,13.29,0.021,344.1
2023-12-24T00:28:03,42.805,6.029,-0.012,0.005,-0.044,103.0,103.0,101.0,13.4,1505.2,347.0,-0.7,1.8,2471.459,13.29,0.013,292.6
2023-12-24T00:31:03,42.805,6.029,0.006,-0.012,-0.021,103.0,103.0,101.0,13.4,1505.2,358.5,-0.7,1.8,2471.442,13.29,0.013,153.4
2023-12-24T00:34:03,42.805,6.029,0.005,0.012,-0.016,104.0,104.0,100.0,13.3,1505.2,347.1,-0.8,1.8,2471.421,13.29,0.013,22.6
2023-12-24T00:37:03,42.805,6.029,-0.001,-0.006,-0.036,103.0,104.0,100.0,13.4,1505.2,3.9,-0.7,1.8,2471.484,13.29,0.006,189.5
2023-12-24T00:40:03,42.805,6.029,-0.002,0.015,-0.014,102.0,101.0,102.0,13.4,1505.2,351.2,-0.8,1.8,2471.409,13.29,0.015,352.4
2023-12-24T00:43:03,42.805,6.029,-0.001,0.0,-0.029,103.0,103.0,100.0,13.4,1505.2,358.3,-0.7,1.8,2471.475,13.29,0.001,270.0
2023-12-24T00:46:03,42.805,6.029,0.004,0.012,-0.007,102.0,103.0,100.0,13.4,1505.2,2.4,-0.8,1.8,2471.442,13.29,0.012,18.4
2023-12-24T00:49:03,42.805,6.029,0.007,0.007,-0.019,103.0,101.0,102.0,13.4,1505.2,349.8,-0.8,1.8,2471.455,13.29,0.009,45.0
2023-12-24T00:52:03,42.805,6.029,0.014,0.019,-0.038,103.0,103.0,101.0,13.4,1505.2,2.3,-0.8,1.9,2471.494,13.29,0.023,36.4
2023-12-24T00:55:03,42.805,6.029,-0.008,0.0,-0.049,102.0,104.0,101.0,13.4,1505.2,345.1,-0.7,1.8,2471.474,13.29,0.008,270.0
2023-12-24T00:58:03,42.805,6.029,0.007,0.016,-0.007,101.0,103.0,101.0,13.3,1505.2,348.3,-0.8,1.8,2471.504,13.29,0.017,23.6
2023-12-24T01:04:03,42.805,6.029,-0.025,0.018,-0.021,103.0,104.0,102.0,13.3,1505.2,355.7,-0.7,1.8,2471.474,13.29,0.03,305.8
2023-12-24T01:07:03,42.805,6.029,0.006,0.014,-0.035,103.0,104.0,101.0,13.3,1505.2,2.4,-0.8,1.8,2471.496,13.29,0.015,23.2
2023-12-24T01:10:03,42.805,6.029,0.007,-0.01,-0.05,104.0,104.0,100.0,13.4,1505.2,344.6,-0.7,1.8,2471.492,13.29,0.012,145.0
2023-12-24T01:13:02,42.805,6.029,0.002,0.006,-0.014,103.0,104.0,102.0,13.3,1505.2,345.5,-0.7,1.8,2471.506,13.29,0.006,18.4
2023-12-24T01:16:03,42.805,6.029,-0.013,0.014,-0.026,104.0,103.0,102.0,13.4,1505.2,356.9,-0.7,1.8,2471.492,13.29,0.019,317.1
2023-12-24T01:19:03,42.805,6.029,-0.004,0.012,-0.013,103.0,104.0,101.0,13.4,1505.2,357.5,-0.8,1.8,2471.498,13.29,0.012,341.6
2023-12-24T01:22:03,42.805,6.029,-0.015,0.01,-0.041,104.0,103.0,101.0,13.4,1505.2,351.7,-0.8,1.9,2471.484,13.29,0.018,303.7
2023-12-24T01:25:03,42.805,6.029,0.01,0.003,-0.003,104.0,102.0,102.0,13.4,1505.2,346.3,-0.7,1.8,2471.507,13.29,0.01,73.3
2023-12-24T01:28:03,42.805,6.029,-0.01,0.025,-0.006,105.0,103.0,101.0,13.4,1505.2,354.3,-0.8,1.8,2471.48,13.29,0.026,338.2
2023-12-24T01:31:03,42.805,6.029,-0.006,0.01,-0.055,105.0,105.0,101.0,13.4,1505.2,344.2,-0.8,1.8,2471.501,13.29,0.011,329.0
2023-12-24T01:34:03,42.805,6.029,0.015,-0.004,-0.026,104.0,104.0,101.0,13.4,1505.2,355.2,-0.8,1.9,2471.542,13.29,0.015,104.9
2023-12-24T01:37:03,42.805,6.029,-0.004,0.02,-0.046,105.0,103.0,101.0,13.4,1505.2,1.6,-0.8,1.8,2471.501,13.29,0.02,348.7
2023-12-24T01:40:03,42.805,6.029,0.005,0.0,-0.028,105.0,103.0,102.0,13.3,1505.2,338.9,-0.7,1.8,2471.496,13.29,0.005,90.0
2023-12-24T01:43:03,42.805,6.029,-0.011,0.003,-0.034,105.0,102.0,102.0,13.3,1505.2,345.7,-0.8,1.8,2471.482,13.29,0.011,285.3
2023-12-24T01:46:03,42.805,6.029,-0.013,0.023,-0.028,104.0,103.0,101.0,13.4,1505.2,341.7,-0.8,1.8,2471.509,13.29,0.026,330.5
2023-12-24T01:49:03,42.805,6.029,-0.011,0.012,-0.006,104.0,102.0,101.0,13.4,1505.2,352.6,-0.7,1.8,2471.499,13.29,0.016,317.5
2023-12-24T01:52:03,42.805,6.029,-0.008,0.021,-0.05,104.0,103.0,101.0,13.4,1505.2,1.6,-0.7,1.8,2471.455,13.29,0.022,339.1
2023-12-24T01:55:03,42.805,6.029,-0.017,0.006,-0.017,105.0,102.0,101.0,13.4,1505.2,339.8,-0.8,1.8,2471.536,13.29,0.018,289.4
2023-12-24T01:58:03,42.805,6.029,-0.014,0.001,-0.033,103.0,104.0,102.0,13.4,1505.2,350.0,-0.8,1.8,2471.483,13.29,0.014,274.1
2023-12-24T02:04:03,42.805,6.029,-0.002,0.004,-0.028,103.0,103.0,102.0,13.4,1505.2,3.0,-0.8,1.8,2471.531,13.29,0.004,333.4
2023-12-24T02:07:03,42.805,6.029,0.003,0.016,-0.03,104.0,103.0,102.0,13.4,1505.2,358.4,-0.8,1.8,2471.547,13.29,0.016,10.6
2023-12-24T02:10:03,42.805,6.029,-0.01,-0.01,-0.001,104.0,104.0,102.0,13.4,1505.2,3.3,-0.8,1.8,2471.558,13.29,0.014,225.0
2023-12-24T02:13:03,42.805,6.029,-0.019,-0.002,-0.047,105.0,103.0,101.0,13.3,1505.2,338.9,-0.8,1.8,2471.539,13.29,0.019,264.0
2023-12-24T02:16:03,42.805,6.029,0.002,0.012,-0.009,103.0,104.0,102.0,13.3,1505.2,347.2,-0.8,1.8,2471.57,13.29,0.012,9.5
2023-12-24T02:19:03,42.805,6.029,-0.014,0.015,-0.014,103.0,103.0,103.0,13.3,1505.2,355.0,-0.8,1.8,2471.583,13.29,0.02,317.0
2023-12-24T02:22:03,42.805,6.029,-0.011,-0.008,-0.068,104.0,104.0,101.0,13.4,1505.2,349.8,-0.8,1.8,2471.551,13.29,0.013,234.0
2023-12-24T02:25:03,42.805,6.029,-0.002,0.008,-0.016,104.0,104.0,102.0,13.4,1505.2,345.5,-0.8,1.8,2471.56,13.29,0.008,346.0
2023-12-24T02:28:03,42.805,6.029,-0.001,0.011,-0.023,103.0,104.0,102.0,13.4,1505.2,352.8,-0.8,1.8,2471.576,13.29,0.011,354.8
2023-12-24T02:31:03,42.805,6.029,0.015,-0.016,-0.041,104.0,104.0,102.0,13.4,1505.2,341.3,-0.8,1.8,2471.533,13.29,0.021,136.9
2023-12-24T02:34:03,42.805,6.029,0.011,0.016,-0.022,104.0,104.0,102.0,13.4,1505.2,348.8,-0.8,1.8,2471.572,13.29,0.019,34.5
2023-12-24T02:37:03,42.805,6.029,-0.011,-0.001,-0.024,103.0,104.0,104.0,13.4,1505.2,3.2,-0.7,1.8,2471.614,13.29,0.011,264.8
2023-12-24T02:40:03,42.805,6.029,-0.002,0.011,-0.007,104.0,105.0,102.0,13.4,1505.2,358.5,-0.8,1.8,2471.556,13.29,0.011,349.7
2023-12-24T02:43:03,42.805,6.029,-0.004,0.023,0.001,104.0,103.0,102.0,13.3,1505.2,341.3,-0.8,1.8,2471.568,13.29,0.023,350.1
2023-12-24T02:46:03,42.805,6.029,-0.012,0.003,-0.04,102.0,103.0,102.0,13.3,1505.2,352.6,-0.7,1.8,2471.545,13.29,0.012,284.0
2023-12-24T02:49:03,42.805,6.029,-0.002,0.027,-0.019,105.0,103.0,101.0,13.3,1505.2,2.4,-0.8,1.8,2471.557,13.29,0.027,355.8
2023-12-24T02:52:03,42.805,6.029,-0.002,0.012,-0.027,104.0,104.0,102.0,13.3,1505.2,350.8,-0.8,1.8,2471.563,13.29,0.012,350.5
2023-12-24T02:55:03,42.805,6.029,0.001,0.031,0.002,102.0,104.0,103.0,13.4,1505.2,354.8,-0.8,1.8,2471.576,13.29,0.031,1.8
2023-12-24T02:58:03,42.805,6.029,-0.016,-0.001,-0.032,104.0,105.0,102.0,13.4,1505.2,354.3,-0.8,1.8,2471.573,13.29,0.016,266.4
2023-12-24T03:04:03,42.805,6.029,0.0,-0.003,0.0,106.0,106.0,102.0,13.4,1505.2,3.2,-0.8,1.8,2471.622,13.29,0.003,180.0
2023-12-24T03:07:03,42.805,6.029,-0.008,0.001,-0.006,105.0,104.0,101.0,13.3,1505.2,354.9,-0.7,1.8,2471.612,13.29,0.008,277.1
2023-12-24T03:10:03,42.805,6.029,-0.014,0.004,-0.024,105.0,103.0,102.0,13.3,1505.2,352.1,-0.7,1.8,2471.621,13.29,0.014,285.9
2023-12-24T03:13:03,42.805,6.029,-0.005,0.003,-0.01,104.0,104.0,103.0,13.4,1505.2,1.6,-0.8,1.8,2471.573,13.29,0.005,301.0
2023-12-24T03:16:03,42.805,6.029,0.006,0.013,-0.01,103.0,103.0,102.0,13.4,1505.2,0.0,-0.7,1.8,2471.584,13.29,0.014,24.8
2023-12-24T03:19:03,42.805,6.029,-0.006,0.007,-0.015,103.0,107.0,103.0,13.3,1505.2,342.3,-0.8,1.8,2471.572,13.29,0.009,319.4
2023-12-24T03:22:03,42.805,6.029,-0.01,-0.007,-0.024,104.0,104.0,102.0,13.4,1505.2,346.8,-0.7,1.8,2471.578,13.29,0.012,235.0
2023-12-24T03:25:03,42.805,6.029,-0.004,0.0,-0.019,104.0,104.0,102.0,13.4,1505.2,359.1,-0.7,1.8,2471.554,13.29,0.004,270.0
2023-12-24T03:28:03,42.805,6.029,0.006,0.0,0.002,104.0,104.0,102.0,13.3,1505.2,345.9,-0.8,1.8,2471.575,13.29,0.006,90.0
2023-12-24T03:31:03,42.805,6.029,-0.02,0.014,-0.05,105.0,105.0,101.0,13.4,1505.2,350.2,-0.7,1.8,2471.582,13.29,0.024,305.0
2023-12-24T03:34:03,42.805,6.029,-0.003,0.014,-0.056,104.0,104.0,102.0,13.3,1505.2,2.4,-0.8,1.8,2471.594,13.29,0.014,347.9
2023-12-24T03:37:03,42.805,6.029,-0.008,0.011,-0.021,104.0,104.0,101.0,13.4,1505.2,356.7,-0.8,1.8,2471.561,13.29,0.013,324.0
2023-12-24T03:40:03,42.805,6.029,0.002,0.014,-0.009,104.0,106.0,103.0,13.4,1505.2,346.7,-0.8,1.8,2471.564,13.29,0.014,8.1
2023-12-24T03:43:03,42.805,6.029,0.003,0.017,-0.019,103.0,105.0,103.0,13.3,1505.2,354.1,-0.8,1.8,2471.642,13.29,0.017,10.0
2023-12-24T03:46:03,42.805,6.029,0.0,0.015,-0.053,104.0,104.0,102.0,13.4,1505.2,353.8,-0.8,1.8,2471.587,13.29,0.015,0.0
2023-12-24T03:49:03,42.805,6.029,-0.006,0.013,-0.03,103.0,104.0,101.0,13.4,1505.2,0.8,-0.7,1.8,2471.592,13.29,0.014,335.2
2023-12-24T03:52:03,42.805,6.029,-0.016,0.017,-0.004,104.0,104.0,102.0,13.3,1505.2,348.8,-0.8,1.8,2471.588,13.29,0.023,316.7
2023-12-24T03:55:03,42.805,6.029,-0.006,0.019,-0.027,104.0,104.0,102.0,13.4,1505.2,354.2,-0.8,1.8,2471.582,13.29,0.019,342.5
2023-12-24T03:58:03,42.805,6.029,-0.025,-0.004,-0.025,104.0,104.0,104.0,13.3,1505.2,353.1,-0.8,1.8,2471.635,13.29,0.025,260.9
2023-12-24T04:04:03,42.805,6.029,-0.01,0.005,-0.002,106.0,105.0,102.0,13.4,1505.2,358.2,-0.8,1.8,2471.628,13.29,0.011,296.6
2023-12-24T04:07:03,42.805,6.029,-0.014,0.029,0.012,105.0,106.0,102.0,13.3,1505.2,349.8,-0.8,1.8,2471.637,13.29,0.032,334.2
2023-12-24T04:10:03,42.805,6.029,-0.012,0.013,-0.035,104.0,103.0,102.0,13.4,1505.2,358.3,-0.8,1.8,2471.681,13.29,0.017,317.3
2023-12-24T04:13:03,42.805,6.029,-0.002,0.011,-0.045,104.0,103.0,104.0,13.3,1505.2,357.5,-0.7,1.8,2471.643,13.29,0.011,349.7
2023-12-24T04:16:03,42.805,6.029,-0.002,0.001,0.0,104.0,104.0,102.0,13.3,1505.2,343.1,-0.7,1.8,2471.632,13.29,0.002,296.6
2023-12-24T04:19:03,42.805,6.029,-0.003,0.013,-0.019,106.0,104.0,101.0,13.4,1505.2,346.1,-0.7,1.8,2471.603,13.29,0.013,347.0
2023-12-24T04:22:03,42.805,6.029,-0.001,0.017,0.003,104.0,104.0,102.0,13.4,1505.2,359.2,-0.7,1.8,2471.61,13.29,0.017,356.6
2023-12-24T04:25:03,42.805,6.029,0.005,0.045,-0.027,105.0,103.0,102.0,13.4,1505.2,341.3,-0.7,1.8,2471.595,13.29,0.045,6.3
2023-12-24T04:28:03,42.805,6.029,-0.021,0.028,-0.023,104.0,104.0,100.0,13.4,1505.2,349.5,-0.8,1.8,2471.611,13.29,0.035,323.1
2023-12-24T04:31:03,42.805,6.029,-0.009,0.005,-0.029,103.0,103.0,101.0,13.4,1505.2,352.4,-0.7,1.8,2471.649,13.29,0.01,299.1
2023-12-24T04:34:03,42.805,6.029,-0.002,0.022,0.0,105.0,103.0,101.0,13.4,1505.2,356.7,-0.8,1.8,2471.612,13.29,0.022,354.8
2023-12-24T04:37:03,42.805,6.029,0.016,0.023,-0.01,105.0,103.0,102.0,13.4,1505.2,2.4,-0.8,1.8,2471.597,13.29,0.028,34.8
2023-12-24T04:40:03,42.805,6.029,-0.02,0.015,0.001,105.0,102.0,103.0,13.4,1505.2,351.1,-0.8,1.8,2471.619,13.29,0.025,306.9
2023-12-24T04:43:03,42.805,6.029,-0.009,0.007,-0.008,104.0,104.0,102.0,13.4,1505.2,347.4,-0.8,1.8,2471.65,13.29,0.011,307.9
2023-12-24T04:46:03,42.805,6.029,-0.012,-0.006,-0.044,103.0,104.0,103.0,13.4,1505.2,349.1,-0.8,1.8,2471.581,13.29,0.013,243.4
2023-12-24T04:49:03,42.805,6.029,0.009,-0.015,-0.03,105.0,104.0,102.0,13.4,1505.2,355.6,-0.7,1.8,2471.608,13.29,0.017,149.0
2023-12-24T04:52:03,42.805,6.029,-0.022,0.002,-0.063,104.0,103.0,102.0,13.4,1505.2,3.9,-0.8,1.8,2471.613,13.29,0.022,275.2
2023-12-24T04:55:03,42.805,6.029,-0.01,0.015,-0.044,104.0,105.0,102.0,13.3,1505.2,353.9,-0.7,1.8,2471.616,13.29,0.018,326.3
2023-12-24T04:58:03,42.805,6.029,-0.001,-0.011,-0.027,106.0,105.0,103.0,13.3,1505.2,349.3,-0.8,1.8,2471.638,13.29,0.011,185.2
2023-12-24T05:04:03,42.805,6.029,-0.014,0.032,-0.016,105.0,104.0,103.0,13.4,1505.2,348.8,-0.8,1.8,2471.676,13.29,0.034,336.4
2023-12-24T05:07:03,42.805,6.029,0.018,0.015,0.014,105.0,103.0,103.0,13.4,1505.2,1.4,-0.8,1.8,2471.694,13.29,0.023,50.2
2023-12-24T05:10:03,42.805,6.029,0.0,0.023,0.026,104.0,105.0,102.0,13.3,1505.2,347.1,-0.8,1.8,2471.671,13.29,0.023,0.0
2023-12-24T05:13:03,42.805,6.029,-0.006,0.024,-0.032,104.0,104.0,101.0,13.4,1505.2,358.3,-0.8,1.8,2471.676,13.29,0.024,346.0
2023-12-24T05:16:03,42.805,6.029,-0.03,0.026,0.006,104.0,105.0,101.0,13.4,1505.2,340.3,-0.7,1.8,2471.623,13.29,0.039,310.9
2023-12-24T05:19:03,42.805,6.029,-0.012,-0.001,-0.031,105.0,104.0,101.0,13.3,1505.2,349.2,-0.8,1.8,2471.646,13.29,0.012,265.2
2023-12-24T05:22:03,42.805,6.029,-0.012,0.0,-0.044,104.0,106.0,101.0,13.4,1505.2,355.0,-0.7,1.8,2471.665,13.29,0.012,270.0
2023-12-24T05:25:03,42.805,6.029,-0.011,-0.002,-0.033,105.0,105.0,101.0,13.3,1505.2,353.4,-0.8,1.8,2471.656,13.29,0.011,259.7
2023-12-24T05:28:03,42.805,6.029,-0.006,0.017,-0.025,104.0,105.0,102.0,13.3,1505.2,350.0,-0.8,1.8,2471.668,13.29,0.018,340.6
2023-12-24T05:31:03,42.805,6.029,0.013,0.003,-0.01,105.0,103.0,101.0,13.4,1505.2,2.4,-0.8,1.8,2471.668,13.29,0.013,77.0
2023-12-24T05:34:03,42.805,6.029,-0.006,-0.007,-0.049,104.0,104.0,102.0,13.4,1505.2,346.4,-0.8,1.8,2471.643,13.29,0.009,220.6
2023-12-24T05:37:03,42.805,6.029,-0.004,-0.022,-0.02,106.0,104.0,102.0,13.4,1505.2,354.6,-0.8,1.8,2471.627,13.29,0.022,190.3
2023-12-24T05:40:03,42.805,6.029,-0.018,0.007,-0.042,104.0,104.0,101.0,13.4,1505.2,347.6,-0.8,1.8,2471.659,13.29,0.019,291.2
2023-12-24T05:43:03,42.805,6.029,-0.008,0.03,-0.013,104.0,104.0,102.0,13.4,1505.2,358.2,-0.8,1.8,2471.618,13.29,0.031,345.1
2023-12-24T05:46:03,42.805,6.029,0.004,0.003,-0.021,104.0,104.0,102.0,13.4,1505.2,1.5,-0.7,1.8,2471.643,13.29,0.005,53.1
2023-12-24T05:49:03,42.805,6.029,-0.031,0.019,-0.037,103.0,105.0,102.0,13.4,1505.2,339.7,-0.8,1.8,2471.651,13.29,0.036,301.5
2023-12-24T05:52:03,42.805,6.029,-0.03,0.034,-0.042,104.0,104.0,102.0,13.4,1505.2,351.6,-0.8,1.8,2471.628,13.29,0.045,318.6
2023-12-24T05:55:03,42.805,6.029,-0.011,0.014,-0.022,104.0,105.0,102.0,13.3,1505.2,3.2,-0.8,1.8,2471.643,13.29,0.017,321.8
2023-12-24T05:58:03,42.805,6.029,-0.019,0.02,-0.011,104.0,103.0,102.0,13.4,1505.2,340.4,-0.7,1.8,2471.647,13.29,0.027,316.5
2023-12-24T06:04:03,42.805,6.029,-0.021,0.022,-0.001,104.0,103.0,102.0,13.4,1505.2,346.5,-0.8,1.8,2471.669,13.29,0.03,316.3
2023-12-24T06:07:03,42.805,6.029,0.013,0.045,0.0,103.0,104.0,102.0,13.4,1505.2,357.8,-0.8,1.8,2471.65,13.29,0.046,16.1
2023-12-24T06:10:03,42.805,6.029,-0.017,0.012,-0.015,104.0,103.0,101.0,13.3,1505.2,349.6,-0.8,1.8,2471.679,13.29,0.02,305.2
2023-12-24T06:13:03,42.805,6.029,0.002,0.017,-0.016,105.0,103.0,102.0,13.4,1505.2,349.0,-0.8,1.8,2471.665,13.29,0.017,6.7
2023-12-24T06:16:03,42.805,6.029,-0.017,0.017,-0.041,104.0,103.0,103.0,13.4,1505.2,3.1,-0.7,1.8,2471.633,13.29,0.024,315.0
2023-12-24T06:19:03,42.805,6.029,0.0,0.005,-0.063,105.0,104.0,103.0,13.4,1505.2,347.7,-0.8,1.8,2471.645,13.29,0.005,0.0
2023-12-24T06:22:03,42.805,6.029,-0.018,0.007,-0.04,103.0,105.0,102.0,13.4,1505.2,355.4,-0.8,1.8,2471.605,13.29,0.019,291.2
2023-12-24T06:25:03,42.805,6.029,-0.01,0.009,-0.065,105.0,104.0,101.0,13.4,1505.2,349.4,-0.7,1.8,2471.655,13.29,0.013,312.0
2023-12-24T06:28:03,42.805,6.029,0.006,0.001,0.004,105.0,103.0,102.0,13.4,1505.2,0.8,-0.7,1.8,2471.62,13.29,0.006,80.5
2023-12-24T06:31:03,42.805,6.029,0.003,0.005,-0.004,104.0,104.0,102.0,13.4,1505.2,342.9,-0.7,1.8,2471.595,13.29,0.005,31.0
2023-12-24T06:34:03,42.805,6.029,-0.011,0.005,-0.03,104.0,104.0,101.0,13.4,1505.2,356.7,-0.8,1.8,2471.653,13.29,0.012,294.4
2023-12-24T06:37:03,42.805,6.029,-0.004,0.017,-0.001,105.0,104.0,103.0,13.3,1505.2,357.4,-0.8,1.8,2471.658,13.29,0.017,346.8
2023-12-24T06:40:03,42.805,6.029,0.006,0.008,-0.064,104.0,104.0,103.0,13.4,1505.2,341.3,-0.8,1.8,2471.644,13.29,0.01,36.9
2023-12-24T06:43:03,42.805,6.029,-0.001,0.018,-0.039,104.0,102.0,102.0,13.3,1505.2,353.5,-0.8,1.8,2471.634,13.29,0.018,356.8
2023-12-24T06:46:03,42.805,6.029,0.01,0.019,-0.008,103.0,104.0,102.0,13.4,1505.2,2.4,-0.7,1.8,2471.618,13.29,0.021,27.8
2023-12-24T06:49:03,42.805,6.029,-0.009,0.006,-0.025,104.0,104.0,102.0,13.3,1505.2,349.5,-0.8,1.8,2471.663,13.29,0.01,303.7
2023-12-24T06:52:03,42.805,6.029,-0.012,-0.014,-0.036,105.0,103.0,101.0,13.4,1505.2,1.6,-0.7,1.8,2471.615,13.29,0.018,220.6
2023-12-24T06:55:03,42.805,6.029,-0.004,-0.004,-0.04,105.0,104.0,103.0,13.3,1505.2,341.3,-0.8,1.8,2471.593,13.29,0.005,225.0
2023-12-24T06:58:03,42.805,6.029,-0.006,0.036,-0.012,105.0,104.0,102.0,13.4,1505.2,346.7,-0.8,1.8,2471.636,13.29,0.036,350.5
2023-12-24T07:04:03,42.805,6.029,0.013,-0.001,-0.002,104.0,104.0,102.0,13.4,1505.2,347.1,-0.8,1.8,2471.65,13.29,0.013,94.4
2023-12-24T07:07:03,42.805,6.029,0.001,0.017,-0.037,105.0,105.0,103.0,13.3,1505.2,356.0,-0.8,1.8,2471.662,13.29,0.017,3.4
2023-12-24T07:10:03,42.805,6.029,-0.008,0.028,-0.023,104.0,105.0,101.0,13.3,1505.2,348.6,-0.7,1.8,2471.641,13.29,0.029,344.1
2023-12-24T07:13:03,42.805,6.029,-0.006,0.008,-0.008,105.0,104.0,103.0,13.3,1505.2,357.4,-0.8,1.8,2471.634,13.29,0.01,323.1
2023-12-24T07:16:03,42.805,6.029,0.001,-0.005,-0.028,105.0,103.0,102.0,13.3,1505.2,348.1,-0.7,1.8,2471.645,13.29,0.005,168.7
2023-12-24T07:19:03,42.805,6.029,-0.014,0.009,-0.008,103.0,105.0,103.0,13.4,1505.2,356.6,-0.8,1.8,2471.623,13.29,0.016,302.7
2023-12-24T07:22:03,42.805,6.029,0.016,0.008,-0.002,104.0,105.0,102.0,13.4,1505.2,3.1,-0.8,1.8,2471.631,13.29,0.017,63.4
2023-12-24T07:25:03,42.805,6.029,0.003,0.01,-0.023,104.0,104.0,102.0,13.4,1505.2,349.8,-0.8,1.8,2471.614,13.29,0.01,16.7
2023-12-24T07:28:03,42.805,6.029,-0.027,0.004,-0.022,104.0,103.0,102.0,13.4,1505.2,346.1,-0.8,1.8,2471.6,13.29,0.027,278.4
2023-12-24T07:31:03,42.805,6.029,0.011,-0.037,0.003,104.0,103.0,101.0,13.3,1505.2,2.4,-0.8,1.8,2471.611,13.29,0.038,163.4
2023-12-24T07:34:03,42.805,6.029,-0.029,0.006,-0.046,105.0,104.0,101.0,13.4,1505.2,345.9,-0.8,1.8,2471.611,13.29,0.029,281.7
2023-12-24T07:37:03,42.805,6.029,-0.005,0.011,0.002,104.0,104.0,102.0,13.4,1505.2,355.7,-0.8,1.8,2471.603,13.29,0.012,335.6
2023-12-24T07:40:03,42.805,6.029,0.014,-0.001,-0.014,104.0,104.0,102.0,13.4,1505.2,357.4,-0.8,1.8,2471.631,13.29,0.014,94.1
2023-12-24T07:43:03,42.805,6.029,-0.009,-0.006,-0.01,104.0,103.0,104.0,13.4,1505.2,342.4,-0.8,1.8,2471.638,13.29,0.01,236.3
2023-12-24T07:46:03,42.805,6.029,0.013,-0.019,-0.025,103.0,103.0,103.0,13.3,1505.2,357.5,-0.8,1.8,2471.633,13.29,0.023,145.6
2023-12-24T07:49:03,42.805,6.029,-0.009,-0.004,-0.037,105.0,103.0,102.0,13.4,1505.2,358.3,-0.8,1.8,2471.598,13.29,0.009,246.0
2023-12-24T07:52:03,42.805,6.029,-0.012,-0.004,-0.029,104.0,103.0,102.0,13.4,1505.2,345.9,-0.7,1.8,2471.615,13.29,0.012,251.6
2023-12-24T07:55:03,42.805,6.029,0.007,-0.008,-0.015,104.0,104.0,102.0,13.4,1505.2,344.7,-0.8,1.8,2471.637,13.29,0.01,138.8
2023-12-24T07:58:03,42.805,6.029,-0.004,0.0,-0.027,104.0,104.0,101.0,13.3,1505.2,344.5,-0.7,1.9,2471.613,13.29,0.004,270.0
2023-12-24T08:04:03,42.805,6.029,-0.01,0.011,-0.029,106.0,104.0,102.0,13.3,1505.2,349.3,-0.8,1.8,2471.657,13.29,0.014,317.7
2023-12-24T08:07:03,42.805,6.029,0.0,-0.004,-0.053,104.0,106.0,101.0,13.4,1505.2,0.0,-0.8,1.8,2471.658,13.29,0.004,180.0
2023-12-24T08:10:03,42.805,6.029,-0.01,-0.004,-0.027,105.0,103.0,102.0,13.4,1505.2,344.7,-0.7,1.8,2471.608,13.29,0.01,248.2
2023-12-24T08:13:03,42.805,6.029,0.013,-0.005,-0.017,105.0,104.0,102.0,13.3,1505.2,354.8,-0.7,1.8,2471.636,13.29,0.013,111.0
2023-12-24T08:16:03,42.805,6.029,-0.003,-0.016,-0.027,103.0,104.0,103.0,13.3,1505.2,340.4,-0.8,1.8,2471.632,13.29,0.016,190.6
2023-12-24T08:19:03,42.805,6.029,-0.01,-0.017,-0.042,104.0,104.0,103.0,13.4,1505.2,357.4,-0.8,1.8,2471.637,13.29,0.019,210.5
2023-12-24T08:22:03,42.805,6.029,-0.01,0.002,-0.015,105.0,103.0,103.0,13.4,1505.2,346.7,-0.8,1.8,2471.607,13.29,0.01,281.3
2023-12-24T08:25:03,42.805,6.029,-0.008,0.004,-0.014,104.0,104.0,102.0,13.3,1505.2,342.2,-0.7,1.8,2471.567,13.29,0.008,296.6
2023-12-24T08:28:03,42.805,6.029,0.014,-0.006,-0.028,104.0,103.0,102.0,13.4,1505.2,351.6,-0.8,1.8,2471.614,13.29,0.015,113.2
2023-12-24T08:31:03,42.805,6.029,0.006,0.0,0.0,103.0,104.0,103.0,13.3,1505.2,347.2,-0.8,1.8,2471.641,13.29,0.006,90.0
2023-12-24T08:34:03,42.805,6.029,-0.022,-0.007,-0.032,105.0,105.0,101.0,13.3,1505.2,0.7,-0.8,1.8,2471.607,13.29,0.023,252.4
2023-12-24T08:37:03,42.805,6.029,-0.006,-0.004,-0.012,106.0,103.0,102.0,13.4,1505.2,339.8,-0.7,1.8,2471.63,13.29,0.007,236.3
2023-12-24T08:40:03,42.805,6.029,0.008,0.012,-0.022,105.0,103.0,101.0,13.4,1505.2,358.3,-0.8,1.8,2471.591,13.29,0.014,33.7
2023-12-24T08:43:03,42.805,6.029,-0.01,0.01,-0.053,104.0,103.0,102.0,13.4,1505.2,347.1,-0.8,1.8,2471.602,13.29,0.014,315.0
2023-12-24T08:46:03,42.805,6.029,0.004,-0.005,-0.024,104.0,105.0,101.0,13.3,1505.2,1.6,-0.7,1.8,2471.625,13.29,0.006,141.3
2023-12-24T08:49:03,42.805,6.029,-0.009,0.014,-0.014,104.0,102.0,103.0,13.3,1505.2,352.1,-0.8,1.8,2471.578,13.29,0.016,327.3
2023-12-24T08:52:03,42.805,6.029,0.008,0.009,-0.021,104.0,105.0,102.0,13.3,1505.2,353.1,-0.7,1.8,2471.603,13.29,0.012,41.6
2023-12-24T08:55:03,42.805,6.029,-0.006,-0.029,-0.05,104.0,103.0,102.0,13.4,1505.2,339.0,-0.8,1.8,2471.575,13.29,0.029,191.7
2023-12-24T08:58:03,42.805,6.029,-0.011,0.018,-0.052,104.0,105.0,102.0,13.4,1505.2,354.9,-0.8,1.8,2471.59,13.29,0.021,328.6
2023-12-24T09:04:03,42.805,6.029,-0.002,0.028,-0.022,104.0,104.0,102.0,13.4,1505.2,3.0,-0.7,1.8,2471.622,13.29,0.028,355.9
2023-12-24T09:07:03,42.805,6.029,0.0,-0.01,-0.053,106.0,105.0,102.0,13.4,1505.2,342.7,-0.8,1.8,2471.623,13.29,0.01,180.0
2023-12-24T09:10:03,42.805,6.029,-0.001,0.019,-0.025,104.0,105.0,103.0,13.3,1505.2,352.1,-0.8,1.8,2471.636,13.29,0.019,357.0
2023-12-24T09:13:03,42.805,6.029,-0.017,-0.003,-0.062,104.0,105.0,102.0,13.4,1505.2,347.3,-0.8,1.8,2471.633,13.29,0.017,260.0
2023-12-24T09:16:03,42.805,6.029,-0.009,-0.004,-0.034,105.0,103.0,103.0,13.4,1505.2,2.4,-0.8,1.8,2471.634,13.29,0.009,246.0
2023-12-24T09:19:03,42.805,6.029,0.002,0.003,-0.043,102.0,105.0,103.0,13.4,1505.2,341.0,-0.8,1.8,2471.576,13.29,0.003,33.7
2023-12-24T09:22:03,42.805,6.029,-0.022,0.006,-0.049,105.0,104.0,103.0,13.4,1505.2,352.1,-0.7,1.8,2471.576,13.29,0.022,285.3
2023-12-24T09:25:03,42.805,6.029,-0.025,0.002,-0.027,105.0,105.0,102.0,13.4,1505.2,355.4,-0.7,1.8,2471.59,13.29,0.025,274.6
2023-12-24T09:28:03,42.805,6.029,-0.007,0.008,-0.027,105.0,103.0,102.0,13.4,1505.2,353.8,-0.8,1.8,2471.611,13.29,0.01,318.8
2023-12-24T09:31:03,42.805,6.029,-0.011,-0.001,-0.012,105.0,103.0,102.0,13.4,1505.2,340.1,-0.8,1.8,2471.564,13.29,0.011,264.8
2023-12-24T09:34:03,42.805,6.029,0.008,-0.005,-0.051,104.0,104.0,102.0,13.4,1505.2,357.5,-0.8,1.8,2471.593,13.29,0.009,122.0
2023-12-24T09:37:03,42.805,6.029,0.001,0.009,-0.022,103.0,104.0,101.0,13.3,1505.2,359.1,-0.8,1.8,2471.584,13.29,0.009,6.3
2023-12-24T09:40:03,42.805,6.029,-0.012,0.013,-0.029,105.0,103.0,102.0,13.4,1505.2,3.9,-0.8,1.8,2471.563,13.29,0.017,317.3
2023-12-24T09:43:03,42.805,6.029,-0.011,-0.006,-0.032,104.0,104.0,102.0,13.4,1505.2,4.0,-0.8,1.8,2471.56,13.29,0.012,241.4
2023-12-24T09:46:03,42.805,6.029,-0.017,-0.007,-0.066,104.0,105.0,101.0,13.4,1505.2,356.9,-0.7,1.8,2471.61,13.29,0.018,247.6
2023-12-24T09:49:03,42.805,6.029,-0.015,0.002,-0.031,104.0,103.0,102.0,13.4,1505.2,350.6,-0.8,1.8,2471.581,13.29,0.015,277.6
2023-12-24T09:52:03,42.805,6.029,0.0,0.015,-0.038,105.0,104.0,102.0,13.4,1505.2,356.1,-0.8,1.8,2471.553,13.29,0.015,0.0
2023-12-24T09:55:03,42.805,6.029,-0.011,-0.006,-0.043,104.0,105.0,102.0,13.4,1505.2,358.4,-0.8,1.8,2471.588,13.29,0.012,241.4
2023-12-24T09:58:03,42.805,6.029,-0.01,0.014,-0.031,104.0,104.0,102.0,13.4,1505.2,347.2,-0.8,1.8,2471.563,13.29,0.017,324.5